[Iaude] MPEC M102: 2020 MN2 [a=1.82,e=0.50,i=8.9,H=22.8]

mpec at marsden.cfa.harvard.edu mpec at marsden.cfa.harvard.edu
Wed Jun 24 23:52:50 EDT 2020


M.P.E.C. 2020-M102                                Issued 2020 June 25, 03:51 UT

     The Minor Planet Electronic Circulars contain information on unusual
         minor planets and routine data on comets.  They are published
    on behalf of Division F of the International Astronomical Union by the
          Minor Planet Center, Smithsonian Astrophysical Observatory,
                          Cambridge, MA 02138, U.S.A.

             Prepared using the Tamkin Foundation Computer Network

                              MPC at CFA.HARVARD.EDU
            URL https://www.minorplanetcenter.net/    ISSN 1523-6714

                                    2020 MN2                                    


Observations:
     K20M02N  C2020 06 17.33359715 27 53.455-19 28 42.40         20.85GVEM102F52
     K20M02N  C2020 06 17.34546915 27 51.033-19 28 54.44         21.21GVEM102F52
     K20M02N* C2020 06 22.30734815 11 31.106-20 58 13.70         21.82wUEM102F51
     K20M02N  C2020 06 22.31815715 11 28.775-20 58 26.18         21.83wUEM102F51
     K20M02N  C2020 06 22.32894315 11 26.461-20 58 38.47         22.12wUEM102F51
     K20M02N ^C2020 06 24.25545615 04 54.768-21 36 18.48         21.88GVEM102568
     K20M02N ^C2020 06 24.25640515 04 54.568-21 36 19.60         21.93GVEM102568
     K20M02N ^C2020 06 24.25735115 04 54.357-21 36 20.79         21.84GVEM102568
     K20M02N  C2020 06 24.32711515 04 39.158-21 37 45.18         22.10wUEM102F51
     K20M02N  C2020 06 24.33852015 04 36.623-21 37 58.90         22.25wUEM102F51
     K20M02N  C2020 06 24.34991615 04 34.176-21 38 12.43         22.01wUEM102F51
     K20M02N  C2020 06 24.36132615 04 31.671-21 38 25.86         21.83wUEM102F51

Observer details:
568 Mauna Kea.  Observers R. Wainscoat, L. Wells, S. Prunet.  Measurers R.
    Weryk, R. Wainscoat.  3.6-m Canada-France-Hawaii Telescope + CCD.
F51 Pan-STARRS 1, Haleakala.  Observers J. Bulger, T. Lowe, A. Schultz, M.
    Willman.  Measurers K. Chambers, S. Chastel, T. de Boer, L. Denneau, J.
    Fairlamb, H. Flewelling, M. Huber, C.-C. Lin, E. Magnier, Y. Ramanjooloo,
    R. Wainscoat, R. Weryk.  1.8-m Ritchey-Chretien + CCD.
F52 Pan-STARRS 2, Haleakala.  Observers J. Bulger, K. Chambers, T. Dukes, T.
    Lowe, A. Schultz, M. Willman.  Measurers S. Chastel, M. Huber, Y.
    Ramanjooloo, R. Wainscoat, R. Weryk.  1.8-m Ritchey-Chretien + CCD.

Orbital elements:
2020 MN2                                                 Earth MOID = 0.0867 AU
Epoch 2020 May 31.0 TT = JDT 2459000.5                  Pan
M 321.94684              (2000.0)            P               Q
n   0.40300161     Peri.  264.73325     +0.94436482     +0.29192293
a   1.8152295      Node    78.22876     -0.20527870     +0.88307246
e   0.5034971      Incl.    8.90331     -0.25697422     +0.36737451
P   2.45           H   22.8           G   0.15           U   7
Residuals in seconds of arc
200617 F52  0.0   0.0     200622 F51  0.1+  0.0     200624 F51  0.2+  0.1+
200617 F52  0.0   0.0     200624 568  0.0   0.1+    200624 F51  0.4-  0.0
200622 F51  0.0   0.0     200624 568  0.1+  0.1+    200624 F51  0.2+  0.1-
200622 F51  0.1-  0.0     200624 568  0.1+  0.1+    200624 F51  0.1-  0.0

Ephemeris:
2020 MN2                 a,e,i = 1.82, 0.50, 9                   q = 0.9013
Date    TT    R. A. (2000) Decl.     Delta      r    Elong.  Phase     V
2020 05 26    16 24 59.0 -15 03 35   0.4403  1.4512   173.2     4.7    22.2
...
2020 06 10    15 50 04.2 -17 36 59   0.3405  1.3399   159.7    15.2    21.9
...
2020 06 18    15 25 45.0 -19 39 43   0.3024  1.2806   147.1    25.5    21.9
...
2020 06 24    15 05 46.7 -21 30 52   0.2798  1.2364   137.2    34.0    21.9
2020 06 25    15 02 21.2 -21 50 57   0.2764  1.2291   135.5    35.4    21.9
2020 06 26    14 58 54.6 -22 11 29   0.2732  1.2219   133.9    36.8    21.9
...
2020 07 02    14 37 53.8 -24 23 54   0.2557  1.1787   124.0    45.7    21.9
...
2020 07 10    14 08 58.3 -27 43 55   0.2363  1.1231   111.0    57.7    22.0
...
2020 07 25    13 07 34.1 -34 57 10   0.2060  1.0282    87.7    80.8    22.3

M. P. C. Staff               (C) Copyright 2020 MPC           M.P.E.C. 2020-M102




More information about the Iaude mailing list